Vertical_Velocity
-2 -5 -3 -3 -4 -1 -3 -6 -10 6 -3 -18 -8 -8 -1 7 -6 -4 -2 -1 -4 -2 2 -8 -3 -1 -5 -0 -7 -22 12 -1 5 -3 35 8 -3 32 8 -1 6 3 6 3
-4 -2 -4 0 -5 -2 1 -9 4 6 -5 -17 -2 -8 6 6 -3 -5 -5 -4 -8 -5 -4 -6 -6 -5 -8 -1 -7 -2 4 0 3 6 -8 72 -3 -4 5 -3 4 3 5 4
-4 -6 -3 -1 1 -5 8 -12 -3 -17 -1 9 -14 -14 3 12 -6 -4 -6 -2 -1 -6 -2 -3 -5 -5 -6 -9 -5 9 2 9 5 2 4 9 -8 20 -3 6 2 7 6 4
-7 -5 -5 -5 -2 -8 6 -3 -8 -5 -12 -13 7 -63 22 -3 -0 -2 2 -1 -3 -7 -6 -4 -3 -6 -5 -3 6 12 10 9 6 -8 -4 18 19 -23 2 -4 -3 5 5 4
-9 -4 -6 -4 -4 -5 -0 -4 -4 -1 -2 -12 16 -19 15 -6 6 -4 -4 5 -5 -8 -9 -1 -4 -2 -3 -4 6 4 7 7 1 -3 3 6 15 86 -1 2 7 7 4 4
1 -6 -5 -5 -0 -2 -7 -6 5 -3 -3 -2 -4 -13 36 -10 -1 0 -4 4 -4 -1 -4 -2 -1 -1 0 4 2 -3 2 12 5 -11 7 -10 -9 35 6 6 6 3 2 4
4 -4 -6 -9 -3 -3 -4 -9 -16 -5 -7 -1 -3 -4 -14 0 -2 -5 -6 -4 2 -4 -6 -3 1 1 -1 5 4 1 6 5 6 -2 52 11 2 29 9 -2 1 1 6 5
-3 2 -2 1 -9 -3 1 -1 -5 -21 -10 -11 9 -6 -3 -7 -3 0 -5 -9 -3 0 0 1 -0 2 0 4 7 1 6 8 8 8 -2 10 9 8 13 -6 -3 0 8 3
-15 6 -6 -4 -4 -1 -3 -2 2 -14 13 -6 -5 2 15 -3 -1 0 -7 2 2 1 2 1 0 2 8 1 5 2 2 6 10 35 5 10 -11 7 16 -2 -2 -1 7 1
-6 -13 7 1 -1 -1 0 -4 -2 6 -21 -10 13 4 -7 1 2 8 -2 0 -2 0 2 3 4 7 1 4 7 4 -1 2 4 6 20 9 3 5 1 -0 -6 1 4 5
-3 1 10 -2 -10 -1 -5 -4 -4 -4 3 -8 -30 27 -1 -0 -12 -4 -7 -2 -5 1 2 1 2 6 1 3 6 2 -2 -1 8 4 3 4 6 8 3 1 -3 8 7 4
-3 -1 -1 0 7 2 3 -1 1 -2 3 17 -3 13 -4 4 -3 3 6 -3 0 -4 7 3 1 5 2 1 3 -1 10 18 15 11 -1 6 21 0 -1 -3 4 5 5 3
-4 -5 -11 2 -7 -8 -0 -3 -7 -0 -0 8 -4 -13 8 3 16 6 -1 1 5 -3 -1 -4 2 4 2 -1 -0 6 12 2 21 -5 1 15 21 1 -5 13 6 6 3 1
-5 5 2 6 5 -5 -1 7 -4 -1 -1 -2 6 -8 4 12 6 -0 -1 13 1 -2 0 1 2 0 1 -2 -1 -6 -2 30 7 3 1 11 9 17 7 12 8 3 3 1
-4 -0 -5 7 -6 -0 -3 0 3 -3 -2 -4 -4 2 0 -5 8 3 1 28 -8 -1 4 0 2 4 4 1 1 -2 -7 44 8 -0 4 1 2 9 12 6 0 3 1 -4
0 -4 -3 11 0 -2 2 -2 -1 -1 -0 4 2 3 3 11 5 2 -1 49 -1 1 2 1 -0 1 -3 -1 1 -1 8 17 11 8 3 6 -6 -2 -4 -2 -2 -3 1 9
-1 -2 -3 11 -4 0 -3 -0 -3 -1 -5 -1 -1 1 2 -0 -0 -5 1 5 4 -6 0 -1 -3 -1 -4 2 -6 -7 -3 4 4 7 22 9 3 -1 3 0 4 2 3 3
0 2 -1 -5 -2 -4 -1 -1 -2 1 -5 -2 -1 2 -5 2 25 4 -0 21 4 0 2 4 1 -2 3 -5 -7 -4 -0 2 2 12 2 3 1 0 -3 0 1 3 5 5
1 -2 -5 -8 1 -1 0 -1 -1 1 -3 -4 0 5 3 -2 -1 -0 0 6 5 6 4 -3 4 -0 -12 1 7 5 6 5 6 7 1 4 2 6 3 3 1 -1 2 3
1 0 1 -3 -2 -6 -3 -0 0 -2 2 -3 -0 0 1 5 -3 2 -3 2 9 3 0 14 21 5 26 -4 -5 1 6 8 13 5 8 2 1 3 5 7 7 6 0 -0
-1 0 0 -2 -3 1 0 0 -1 -2 -2 -6 -1 0 1 1 -3 -0 -3 6 -7 -7 12 -3 1 2 -1 -1 2 -2 2 -2 -3 4 6 6 6 4 3 2 1 -2 0 0
-0 -4 1 -0 -3 -1 1 -0 0 -1 -2 -2 -2 -1 4 -0 0 -2 1 -8 17 -5 -4 -2 2 4 2 -1 1 2 -2 3 4 4 6 8 3 -3 -5 -4 -1 0 1 -0
-7 -1 2 -2 -2 -1 -2 0 3 -3 -0 -3 -2 -2 -0 -0 4 5 2 -4 -3 -3 25 2 -0 -0 -2 3 7 9 5 4 4 2 -2 -3 -3 -0 2 1 -0 -2 -1 -1
-1 -0 0 -2 -1 -1 -1 -1 2 -3 -1 -1 -1 -3 2 2 -2 11 -2 5 3 4 -2 -2 2 4 5 -1 -1 -8 -1 -6 0 3 0 -3 -1 -2 -1 -2 -1 0 -0 0
4 2 6 3 -2 -0 -1 -1 2 -0 -2 1 -0 -3 -1 1 -2 2 3 0 3 3 1 2 1 -1 1 2 2 1 2 3 2 0 -1 -2 -0 -2 -1 0 -1 -3 0 0
8 5 1 -0 -3 -1 0 1 -1 3 -1 -0 0 -4 -3 -2 -1 -8 -3 4 3 1 -2 4 4 2 1 -1 1 1 -1 1 -1 0 1 -0 -0 0 -0 1 1 2 -1 -1
Height
5741 5735 5730 5725 5718 5712 5706 5698 5691 5685 5677 5667 5659 5652 5647 5643 5636 5639 5639 5639 5638 5638 5636 5636 5638 5641 5643 5646 5648 5650 5671 5679 5693 5706 5711 5720 5730 5746 5752 5760 5767 5772 5779 5783
5736 5730 5725 5719 5711 5705 5699 5690 5684 5677 5665 5651 5646 5642 5637 5633 5631 5628 5628 5627 5625 5624 5622 5621 5621 5623 5624 5626 5625 5633 5652 5663 5678 5691 5705 5708 5726 5733 5743 5751 5758 5764 5771 5776
5731 5725 5717 5711 5705 5698 5692 5680 5673 5664 5656 5646 5636 5634 5629 5627 5623 5620 5619 5616 5613 5610 5610 5608 5605 5605 5604 5602 5602 5614 5632 5648 5663 5680 5696 5704 5711 5716 5732 5743 5749 5756 5764 5769
5726 5721 5713 5706 5697 5690 5684 5673 5664 5654 5642 5636 5629 5624 5625 5620 5616 5612 5610 5607 5603 5599 5596 5592 5589 5588 5586 5584 5585 5596 5614 5631 5651 5671 5685 5695 5703 5713 5723 5734 5742 5750 5756 5762
5721 5715 5706 5698 5691 5683 5677 5667 5657 5646 5637 5628 5627 5619 5619 5612 5608 5602 5599 5597 5593 5588 5583 5578 5577 5575 5575 5574 5575 5586 5602 5620 5640 5662 5678 5687 5695 5693 5704 5722 5735 5743 5749 5755
5717 5711 5702 5692 5686 5677 5668 5660 5651 5639 5631 5624 5620 5613 5612 5606 5600 5595 5590 5585 5580 5576 5571 5568 5565 5565 5565 5567 5571 5579 5594 5614 5633 5655 5669 5679 5684 5689 5702 5716 5726 5735 5742 5749
5713 5707 5698 5688 5680 5671 5661 5649 5636 5630 5623 5620 5616 5610 5604 5598 5594 5588 5580 5573 5566 5564 5558 5557 5554 5557 5558 5562 5567 5576 5591 5607 5625 5644 5654 5668 5677 5684 5696 5706 5718 5727 5735 5742
5704 5701 5692 5682 5672 5663 5655 5646 5635 5624 5620 5614 5612 5604 5598 5594 5587 5580 5572 5562 5556 5550 5545 5546 5546 5550 5554 5559 5565 5574 5588 5602 5619 5636 5652 5664 5673 5684 5692 5705 5713 5721 5729 5735
5696 5695 5688 5677 5668 5660 5651 5642 5634 5623 5619 5609 5603 5600 5597 5588 5581 5574 5562 5554 5548 5542 5539 5538 5540 5545 5552 5558 5565 5576 5588 5600 5616 5637 5648 5657 5668 5678 5684 5695 5706 5714 5721 5727
5694 5688 5687 5677 5668 5659 5650 5639 5630 5623 5615 5606 5600 5596 5589 5581 5571 5563 5555 5548 5542 5536 5533 5533 5536 5543 5549 5557 5564 5575 5587 5600 5616 5632 5646 5656 5666 5675 5683 5693 5699 5707 5714 5720
5689 5683 5681 5670 5660 5653 5642 5635 5628 5622 5615 5606 5593 5594 5585 5574 5564 5558 5548 5542 5536 5532 5529 5530 5534 5541 5549 5557 5565 5576 5588 5601 5618 5632 5640 5650 5659 5668 5676 5684 5694 5702 5709 5715
5684 5678 5673 5668 5661 5652 5643 5634 5626 5618 5614 5607 5598 5592 5582 5572 5561 5550 5541 5536 5531 5529 5528 5528 5534 5542 5550 5558 5566 5577 5588 5600 5617 5630 5639 5649 5656 5661 5671 5679 5688 5696 5703 5708
5679 5674 5665 5663 5654 5646 5639 5629 5621 5615 5609 5606 5595 5587 5579 5567 5557 5546 5540 5534 5528 5527 5527 5529 5535 5543 5553 5560 5568 5577 5588 5598 5611 5625 5636 5645 5651 5661 5666 5672 5679 5688 5696 5701
5674 5672 5665 5658 5652 5642 5637 5630 5621 5614 5607 5602 5596 5582 5574 5564 5552 5544 5540 5535 5530 5528 5528 5531 5537 5546 5555 5562 5569 5578 5586 5598 5611 5625 5636 5643 5649 5657 5662 5669 5677 5681 5688 5693
5668 5667 5661 5656 5647 5641 5633 5627 5621 5613 5608 5600 5593 5583 5573 5561 5551 5545 5541 5535 5533 5533 5534 5537 5543 5551 5559 5566 5570 5581 5593 5601 5614 5624 5631 5641 5647 5654 5660 5667 5674 5679 5685 5690
5664 5661 5657 5654 5645 5638 5632 5625 5618 5613 5608 5602 5593 5586 5574 5563 5556 5549 5545 5539 5537 5538 5541 5545 5551 5557 5563 5570 5576 5583 5588 5596 5607 5620 5629 5638 5644 5650 5657 5663 5668 5674 5679 5684
5658 5656 5652 5650 5642 5636 5630 5623 5617 5612 5608 5602 5594 5587 5577 5568 5562 5556 5551 5549 5546 5547 5550 5554 5559 5564 5569 5576 5582 5588 5594 5601 5609 5621 5628 5632 5640 5647 5654 5661 5666 5671 5676 5678
5652 5650 5646 5644 5639 5633 5627 5620 5616 5612 5608 5602 5595 5588 5580 5573 5567 5562 5558 5557 5556 5556 5558 5564 5567 5572 5578 5582 5586 5591 5596 5602 5609 5622 5629 5634 5641 5647 5652 5657 5662 5667 5670 5673
5646 5645 5642 5639 5636 5631 5625 5619 5615 5611 5608 5603 5598 5592 5584 5578 5575 5571 5565 5565 5566 5567 5568 5572 5574 5581 5585 5585 5590 5593 5599 5606 5615 5623 5627 5633 5639 5644 5650 5655 5658 5662 5666 5670
5640 5639 5638 5635 5632 5627 5622 5617 5613 5610 5608 5603 5599 5594 5588 5581 5580 5577 5575 5574 5573 5574 5578 5577 5581 5585 5588 5591 5594 5598 5604 5611 5617 5621 5628 5632 5637 5642 5648 5652 5656 5660 5662 5666
5633 5633 5633 5630 5628 5625 5619 5615 5611 5609 5609 5603 5599 5595 5590 5584 5585 5580 5580 5579 5582 5581 5582 5584 5585 5588 5590 5595 5598 5603 5608 5613 5618 5623 5628 5632 5637 5642 5647 5652 5654 5657 5658 5659
5626 5627 5627 5626 5624 5622 5617 5614 5611 5608 5604 5602 5600 5596 5593 5588 5584 5583 5583 5585 5587 5587 5588 5589 5592 5594 5596 5599 5602 5605 5610 5615 5619 5624 5629 5633 5638 5641 5645 5648 5651 5654 5654 5655
5618 5622 5622 5623 5621 5618 5613 5611 5609 5606 5604 5602 5599 5598 5595 5591 5587 5582 5586 5588 5591 5593 5594 5596 5598 5601 5604 5605 5608 5611 5614 5618 5621 5625 5629 5633 5636 5640 5645 5647 5648 5649 5650 5650
5610 5614 5616 5617 5616 5614 5611 5608 5606 5605 5603 5601 5599 5598 5596 5594 5591 5589 5589 5589 5594 5596 5598 5600 5602 5603 5605 5608 5610 5612 5615 5619 5623 5626 5629 5632 5635 5639 5641 5643 5643 5643 5643 5642
5603 5607 5611 5612 5611 5610 5608 5606 5604 5603 5602 5600 5598 5598 5597 5596 5595 5594 5594 5595 5596 5597 5599 5603 5605 5607 5609 5611 5614 5616 5619 5621 5624 5627 5629 5632 5634 5635 5636 5638 5638 5637 5634 5632
5596 5601 5603 5606 5606 5606 5605 5603 5601 5600 5600 5600 5599 5598 5599 5599 5599 5598 5597 5598 5600 5601 5603 5604 5606 5608 5610 5612 5613 5616 5619 5622 5624 5626 5627 5628 5628 5629 5631 5631 5629 5627 5625 5623